• In Lithuania
  • List of Countries
  • For 7 days
  • Water Temperature
  • Satellite Maps
  • Weather Map
  • Weather Widgets
  • user-avatar
    Login

    Hourly Weather Rekonstruktor

    Today, 21 July, Saturday

    Time Temperature Precipitation Wind Pressure Humidity
    00:00 +22°C° 0.1 mm 3 mps 746 mmHg 74%
    01:00 +22°C° 0.1 mm 3 mps 746 mmHg 76%
    02:00 +21°C° 0.1 mm 3 mps 746 mmHg 78%
    03:00 +21°C° 0.1 mm 3 mps 746 mmHg 80%
    04:00 +21°C° 0 mm 3 mps 746 mmHg 81%
    05:00 +22°C° 0 mm 3 mps 746 mmHg 81%
    06:00 +22°C° 0 mm 3 mps 746 mmHg 82%
    07:00 +25°C° 0.1 mm 3 mps 747 mmHg 75%
    08:00 +26°C° 0.1 mm 4 mps 747 mmHg 68%
    09:00 +28°C° 0.1 mm 4 mps 747 mmHg 60%
    10:00 +29°C° 0.3 mm 4 mps 747 mmHg 55%
    11:00 +32°C° 0.3 mm 4 mps 747 mmHg 50%
    12:00 +33°C° 0.3 mm 4 mps 747 mmHg 45%
    13:00 +33°C° 0 mm 4 mps 747 mmHg 44%
    14:00 +33°C° 0 mm 5 mps 747 mmHg 44%
    15:00 +33°C° 0 mm 5 mps 747 mmHg 43%
    16:00 +33°C° 0 mm 5 mps 747 mmHg 44%
    17:00 +32°C° 0 mm 5 mps 747 mmHg 46%
    18:00 +32°C° 0 mm 5 mps 747 mmHg 47%
    19:00 +29°C° 0 mm 4 mps 747 mmHg 51%
    20:00 +28°C° 0 mm 4 mps 747 mmHg 56%
    21:00 +26°C° 0 mm 3 mps 747 mmHg 61%
    22:00 +26°C° 0 mm 3 mps 747 mmHg 63%
    23:00 +25°C° 0 mm 3 mps 748 mmHg 66%

    Tomorrow, 22 July, Sunday

    Time Temperature Precipitation Wind Pressure Humidity
    00:00 +24°C° 0 mm 3 mps 748 mmHg 68%
    01:00 +24°C° 0 mm 3 mps 747 mmHg 70%
    02:00 +24°C° 0 mm 3 mps 747 mmHg 72%
    03:00 +22°C° 0 mm 3 mps 747 mmHg 73%
    04:00 +24°C° 0 mm 3 mps 747 mmHg 74%
    05:00 +24°C° 0 mm 2 mps 747 mmHg 75%
    06:00 +24°C° 0 mm 2 mps 747 mmHg 76%
    07:00 +26°C° 0 mm 3 mps 747 mmHg 69%
    08:00 +28°C° 0 mm 3 mps 748 mmHg 62%
    09:00 +29°C° 0 mm 3 mps 748 mmHg 55%
    10:00 +30°C° 0 mm 3 mps 747 mmHg 51%
    11:00 +32°C° 0 mm 4 mps 747 mmHg 47%
    12:00 +32°C° 0 mm 4 mps 747 mmHg 43%
    13:00 +33°C° 0 mm 4 mps 747 mmHg 42%
    14:00 +33°C° 0 mm 4 mps 747 mmHg 41%
    15:00 +34°C° 0 mm 4 mps 747 mmHg 39%
    16:00 +33°C° 0 mm 4 mps 747 mmHg 41%
    17:00 +33°C° 0 mm 3 mps 747 mmHg 43%
    18:00 +31°C° 0 mm 3 mps 746 mmHg 44%
    19:00 +30°C° 0 mm 3 mps 747 mmHg 48%
    20:00 +29°C° 0 mm 3 mps 747 mmHg 52%
    21:00 +27°C° 0 mm 3 mps 747 mmHg 56%
    22:00 +26°C° 0 mm 2 mps 747 mmHg 60%
    23:00 +26°C° 0 mm 2 mps 747 mmHg 64%

    Day after tomorrow, 23 July, Monday

    Time Temperature Precipitation Wind Pressure Humidity
    00:00 +25°C° 0 mm 2 mps 747 mmHg 68%
    01:00 +25°C° 0 mm 2 mps 747 mmHg 70%
    02:00 +24°C° 0 mm 2 mps 747 mmHg 72%
    03:00 +24°C° 0 mm 1 mps 747 mmHg 74%
    04:00 +24°C° 0 mm 1 mps 747 mmHg 74%
    05:00 +24°C° 0 mm 1 mps 747 mmHg 74%
    06:00 +24°C° 0 mm 1 mps 747 mmHg 75%
    07:00 +26°C° 0 mm 1 mps 747 mmHg 68%
    08:00 +27°C° 0 mm 1 mps 747 mmHg 61%
    09:00 +29°C° 0 mm 2 mps 747 mmHg 55%
    10:00 +30°C° 0.1 mm 2 mps 747 mmHg 50%
    11:00 +31°C° 0.1 mm 2 mps 747 mmHg 45%
    12:00 +32°C° 0.1 mm 2 mps 747 mmHg 40%
    13:00 +32°C° 0 mm 2 mps 747 mmHg 40%
    14:00 +32°C° 0 mm 2 mps 747 mmHg 40%
    15:00 +33°C° 0 mm 1 mps 746 mmHg 39%
    16:00 +32°C° 0 mm 1 mps 746 mmHg 41%
    17:00 +32°C° 0 mm 1 mps 746 mmHg 42%
    18:00 +31°C° 0 mm 1 mps 746 mmHg 44%
    19:00 +30°C° 0.3 mm 1 mps 747 mmHg 47%
    20:00 +29°C° 0.3 mm 1 mps 747 mmHg 50%
    21:00 +28°C° 0.3 mm 1 mps 747 mmHg 53%
    22:00 +27°C° 1 mm 1 mps 747 mmHg 58%
    23:00 +26°C° 1 mm 1 mps 747 mmHg 64%

    24 July, Tuesday

    Time Temperature Precipitation Wind Pressure Humidity
    00:00 +25°C° 1 mm 2 mps 747 mmHg 69%
    01:00 +25°C° 0.8 mm 1 mps 747 mmHg 72%
    02:00 +24°C° 0.8 mm 1 mps 747 mmHg 75%
    03:00 +24°C° 0.8 mm 1 mps 747 mmHg 78%
    04:00 +24°C° 0 mm 1 mps 747 mmHg 78%
    05:00 +24°C° 0 mm 1 mps 747 mmHg 78%
    06:00 +24°C° 0 mm 1 mps 747 mmHg 78%
    07:00 +26°C° 0.1 mm 1 mps 747 mmHg 71%
    08:00 +27°C° 0.1 mm 1 mps 747 mmHg 64%
    09:00 +29°C° 0.1 mm 2 mps 747 mmHg 57%
    10:00 +30°C° 0 mm 1 mps 747 mmHg 51%
    11:00 +31°C° 0 mm 1 mps 747 mmHg 46%
    12:00 +33°C° 0 mm 1 mps 747 mmHg 41%
    13:00 +33°C° 0 mm 1 mps 747 mmHg 40%
    14:00 +33°C° 0 mm 1 mps 747 mmHg 39%
    15:00 +33°C° 0 mm 1 mps 747 mmHg 38%
    16:00 +33°C° 0 mm 1 mps 747 mmHg 40%
    17:00 +33°C° 0 mm 1 mps 747 mmHg 41%
    18:00 +32°C° 0 mm 1 mps 747 mmHg 43%
    19:00 +31°C° 0 mm 1 mps 747 mmHg 45%
    20:00 +30°C° 0 mm 1 mps 747 mmHg 48%
    21:00 +29°C° 0 mm 2 mps 748 mmHg 50%
    22:00 +28°C° 0 mm 1 mps 748 mmHg 53%
    23:00 +27°C° 0 mm 1 mps 748 mmHg 56%

    25 July, Wednesday

    Time Temperature Precipitation Wind Pressure Humidity
    00:00 +26°C° 0 mm 1 mps 748 mmHg 58%
    01:00 +26°C° 0 mm 1 mps 748 mmHg 61%
    02:00 +26°C° 0 mm 2 mps 748 mmHg 63%
    03:00 +25°C° 0 mm 2 mps 748 mmHg 66%
    04:00 +25°C° 0 mm 2 mps 748 mmHg 68%
    05:00 +25°C° 0 mm 2 mps 748 mmHg 70%
    06:00 +25°C° 0 mm 2 mps 748 mmHg 72%
    07:00 +27°C° 0 mm 2 mps 748 mmHg 65%
    08:00 +29°C° 0 mm 3 mps 749 mmHg 58%
    09:00 +31°C° 0 mm 3 mps 749 mmHg 51%
    10:00 +33°C° 0 mm 3 mps 749 mmHg 46%
    11:00 +34°C° 0 mm 3 mps 749 mmHg 42%
    12:00 +35°C° 0 mm 3 mps 748 mmHg 37%
    13:00 +35°C° 0 mm 3 mps 748 mmHg 37%
    14:00 +35°C° 0 mm 3 mps 748 mmHg 37%
    15:00 +36°C° 0 mm 3 mps 748 mmHg 38%
    16:00 +35°C° 0 mm 3 mps 748 mmHg 38%
    17:00 +35°C° 0 mm 3 mps 748 mmHg 39%
    18:00 +35°C° 0 mm 3 mps 748 mmHg 40%
    19:00 +34°C° 0 mm 3 mps 748 mmHg 43%
    20:00 +31°C° 0 mm 3 mps 748 mmHg 47%
    21:00 +30°C° 0 mm 3 mps 748 mmHg 50%
    22:00 +29°C° 0.1 mm 3 mps 748 mmHg 52%
    23:00 +29°C° 0.1 mm 3 mps 748 mmHg 54%

    26 July, Thursday

    Time Temperature Precipitation Wind Pressure Humidity
    00:00 +28°C° 0.1 mm 4 mps 748 mmHg 56%
    01:00 +27°C° 0.4 mm 4 mps 748 mmHg 59%
    02:00 +27°C° 0.4 mm 4 mps 748 mmHg 62%
    03:00 +26°C° 0.4 mm 3 mps 748 mmHg 64%
    04:00 +26°C° 0.3 mm 3 mps 748 mmHg 65%
    05:00 +25°C° 0.3 mm 3 mps 748 mmHg 65%
    06:00 +25°C° 0.3 mm 3 mps 748 mmHg 66%
    07:00 +27°C° 0.1 mm 3 mps 748 mmHg 59%
    08:00 +29°C° 0.1 mm 4 mps 748 mmHg 53%
    09:00 +32°C° 0.1 mm 4 mps 749 mmHg 46%
    10:00 +34°C° 0 mm 4 mps 748 mmHg 41%
    11:00 +36°C° 0 mm 4 mps 748 mmHg 35%
    12:00 +38°C° 0 mm 4 mps 748 mmHg 29%
    13:00 +38°C° 0 mm 4 mps 748 mmHg 28%
    14:00 +40°C° 0 mm 4 mps 748 mmHg 26%
    15:00 +40°C° 0 mm 4 mps 748 mmHg 24%
    16:00 +38°C° 0 mm 4 mps 748 mmHg 26%
    17:00 +38°C° 0 mm 4 mps 748 mmHg 28%
    18:00 +37°C° 0 mm 3 mps 748 mmHg 29%
    19:00 +36°C° 0 mm 3 mps 748 mmHg 33%
    20:00 +34°C° 0 mm 3 mps 748 mmHg 37%
    21:00 +31°C° 0 mm 3 mps 748 mmHg 41%
    22:00 +30°C° 0 mm 3 mps 748 mmHg 43%
    23:00 +29°C° 0 mm 3 mps 748 mmHg 44%
    Show more